USA 32

operational
NORAD ID: 19460 Int'l Des: 1988-078 Owner: NRO Country: US
LEOCIRCULARPOLAR

About USA 32

Description loading...

Live Position

Loading 3D Globe...

Upcoming Passes

Altitude History

Altitude vs Time

uPlot chart will show altitude changes over time

Two-Line Element Set

1 19460U 88078A 26049.29374310 .00000193 00000-0 61400-4 0 9999
2 19460 84.9902 182.1678 0004770 116.0221 244.1464 14.34406546 92146
Epoch: Feb 18, 2026 • Age: 11 hours

Current Status

Altitude 777.8 km
Velocity 7.47 km/s
Sub-Earth Point 5.87°N, 55.87°W
Launch Date Sep 5, 1988
Age 37.4 years
Type military

Technical Details

Classification Payload
Mass 1450.00 kg
Dry Mass 1200.00 kg
Total Mass 1450.00 kg
Length 0.50 m
Diameter 1.00 m
Span 10.00 m
Shape Cyl + Ant
Manufacturer LMSC
Bus Type NRO-T2
Phase Status In Orbit
Owner/State NRO/US

Large Constellations

Loading constellations...